| time (UTC) | temp F | wind direction | speed knots | gust knots | rain 1hr in | rain 24hr in | rain mn in | humidity % | barometer mb |
| 20260506160019 | 74 | 174 | 1.7 | 4.3 | 0.00 | 0.00 | 0.00 | 90 | 1014.6 |
| 20260506154524 | 74 | 113 | 1.7 | 6.1 | 0.00 | 0.00 | 0.00 | 90 | 1014.6 |
| 20260506153023 | 73 | 126 | 0.9 | 1.7 | 0.00 | 0.00 | 0.00 | 91 | 1014.6 |
| 20260506151528 | 73 | 116 | 0.0 | 1.7 | 0.00 | 0.00 | 0.00 | 91 | 1014.6 |
| 20260506150012 | 73 | 98 | 0.0 | 0.9 | 0.00 | 0.00 | 0.00 | 91 | 1014.6 |
| 20260506144517 | 73 | 107 | 0.0 | 0.9 | 0.00 | 0.00 | 0.00 | 90 | 1014.7 |
| 20260506143026 | 73 | 105 | 0.0 | 0.9 | 0.00 | 0.00 | 0.00 | 90 | 1014.6 |
| 20260506141503 | 73 | 159 | 0.0 | 0.9 | 0.00 | 0.00 | 0.00 | 90 | 1014.4 |
| 20260506140005 | 73 | 144 | 0.0 | 0.9 | 0.00 | 0.00 | 0.00 | 89 | 1014.3 |
| 20260506134504 | 73 | 173 | 0.0 | 0.0 | 0.00 | 0.00 | 0.00 | 89 | 1014.2 |
| 20260506133007 | 73 | 99 | 0.9 | 1.7 | 0.00 | 0.00 | 0.00 | 88 | 1014.3 |
| 20260506131504 | 72 | 124 | 0.0 | 1.7 | 0.00 | 0.00 | 0.00 | 89 | 1014.0 |
| 20260506130010 | 72 | 135 | 0.0 | 0.0 | 0.00 | 0.00 | 0.00 | 89 | 1014.0 |
| 20260506124505 | 71 | 150 | 0.0 | 0.9 | 0.00 | 0.00 | 0.00 | 89 | 1013.8 |
| 20260506123008 | 71 | 143 | 0.0 | 0.9 | 0.00 | 0.00 | 0.00 | 89 | 1013.7 |
| 20260506121507 | 71 | 115 | 0.0 | 0.9 | 0.00 | 0.00 | 0.00 | 89 | 1013.4 |
| 20260506120008 | 71 | 101 | 0.0 | 0.9 | 0.00 | 0.00 | 0.00 | 89 | 1013.1 |
| 20260506114509 | 70 | 101 | 0.0 | 0.9 | 0.00 | 0.00 | 0.00 | 89 | 1013.0 |
| 20260506113009 | 70 | 101 | 0.0 | 0.9 | 0.00 | 0.00 | 0.00 | 89 | 1012.9 |
| 20260506111509 | 71 | 102 | 0.9 | 1.7 | 0.00 | 0.00 | 0.00 | 88 | 1012.7 |
| 20260506110009 | 70 | 173 | 0.0 | 0.0 | 0.00 | 0.00 | 0.00 | 88 | 1012.7 |
| 20260506104508 | 71 | 174 | 0.0 | 0.9 | 0.00 | 0.00 | 0.00 | 88 | 1012.8 |
| 20260506103023 | 71 | 144 | 0.0 | 0.9 | 0.00 | 0.00 | 0.00 | 87 | 1012.8 |
| 20260506101511 | 71 | 176 | 0.0 | 5.2 | 0.00 | 0.00 | 0.00 | 87 | 1012.7 |
| 20260506100008 | 71 | 176 | 2.6 | 5.2 | 0.00 | 0.00 | 0.00 | 87 | 1012.3 |
| 20260506094525 | 71 | 225 | 1.7 | 6.1 | 0.00 | 0.00 | 0.00 | 86 | 1012.4 |
| 20260506093018 | 71 | 172 | 0.0 | 4.3 | 0.00 | 0.00 | 0.00 | 86 | 1012.4 |
| 20260506091509 | 71 | 221 | 1.7 | 6.1 | 0.00 | 0.00 | 0.00 | 86 | 1012.2 |
| 20260506090013 | 71 | 155 | 2.6 | 6.1 | 0.00 | 0.00 | 0.00 | 86 | 1011.8 |
| 20260506084510 | 70 | 150 | 2.6 | 7.8 | 0.00 | 0.00 | 0.00 | 87 | 1011.5 |
| 20260506083010 | 70 | 204 | 1.7 | 5.2 | 0.00 | 0.00 | 0.00 | 87 | 1011.6 |
| 20260506081512 | 70 | 221 | 1.7 | 5.2 | 0.00 | 0.00 | 0.00 | 88 | 1011.7 |
| 20260506073014 | 70 | 153 | 2.6 | 4.3 | 0.00 | 0.00 | 0.00 | 88 | 1012.1 |
| 20260506071512 | 70 | 133 | 3.5 | 6.1 | 0.00 | 0.00 | 0.00 | 88 | 1012.0 |
| 20260506061524 | 69 | 174 | 1.7 | 7.0 | 0.00 | 0.00 | 0.00 | 89 | 1012.5 |
| 20260506044512 | 69 | 165 | 2.6 | 5.2 | 0.00 | 0.00 | 0.00 | 87 | 1012.8 |
| 20260506043014 | 69 | 158 | 2.6 | 6.1 | 0.00 | 0.00 | 0.00 | 86 | 1013.0 |
| 20260506041508 | 69 | 121 | 2.6 | 4.3 | 0.00 | 0.00 | 0.00 | 86 | 1013.2 |
| 20260506040005 | 70 | 134 | 1.7 | 5.2 | 0.00 | 0.00 | 0.00 | 85 | 1013.2 |
| 20260506034505 | 70 | 135 | 2.6 | 5.2 | 0.00 | 0.00 | 0.00 | 85 | 1013.2 |
| 20260506033010 | 70 | 136 | 2.6 | 5.2 | 0.00 | 0.00 | 0.00 | 84 | 1013.2 |
| 20260506031516 | 71 | 155 | 2.6 | 7.0 | 0.00 | 0.00 | 0.00 | 83 | 1013.2 |
| 20260506030012 | 71 | 104 | 1.7 | 7.8 | 0.00 | 0.00 | 0.00 | 82 | 1013.0 |
| 20260506024505 | 71 | 135 | 3.5 | 8.7 | 0.00 | 0.00 | 0.00 | 82 | 1013.0 |
| 20260506023007 | 72 | 236 | 2.6 | 7.8 | 0.00 | 0.00 | 0.00 | 81 | 1013.0 |
| 20260506021512 | 72 | 82 | 5.2 | 9.6 | 0.00 | 0.00 | 0.00 | 80 | 1012.9 |
| 20260506020010 | 73 | 113 | 4.3 | 11.3 | 0.00 | 0.00 | 0.00 | 79 | 1013.0 |
| 20260506014512 | 73 | 152 | 3.5 | 8.7 | 0.00 | 0.00 | 0.00 | 78 | 1012.9 |
| 20260506013004 | 73 | 136 | 3.5 | 9.6 | 0.00 | 0.00 | 0.00 | 78 | 1012.8 |
| 20260506011509 | 74 | 155 | 4.3 | 10.4 | 0.00 | 0.00 | 0.00 | 77 | 1012.5 |
| 20260506010014 | 74 | 129 | 2.6 | 8.7 | 0.00 | 0.00 | 0.00 | 76 | 1012.1 |
| 20260506004514 | 74 | 133 | 2.6 | 10.4 | 0.00 | 0.00 | 0.00 | 76 | 1011.9 |
| 20260506003014 | 75 | 216 | 3.5 | 13.0 | 0.00 | 0.00 | 0.00 | 75 | 1011.8 |
| 20260506001508 | 75 | 164 | 5.2 | 11.3 | 0.00 | 0.00 | 0.00 | 74 | 1011.7 |
| 20260506000010 | 76 | 172 | 2.6 | 11.3 | 0.00 | 0.00 | 0.00 | 73 | 1011.7 |
| 20260505234532 | 76 | 136 | 3.5 | 9.6 | 0.00 | 0.00 | 0.00 | 72 | 1011.8 |
| 20260505233018 | 76 | 75 | 5.2 | 10.4 | 0.00 | 0.00 | 0.00 | 72 | 1011.8 |
| 20260505231516 | 77 | 121 | 3.5 | 7.8 | 0.00 | 0.00 | 0.00 | 71 | 1011.9 |
| 20260505230012 | 77 | 213 | 2.6 | 9.6 | 0.00 | 0.00 | 0.00 | 71 | 1012.1 |
| 20260505224516 | 78 | 210 | 4.3 | 8.7 | 0.00 | 0.00 | 0.00 | 70 | 1011.8 |
| 20260505223017 | 78 | 147 | 2.6 | 6.1 | 0.00 | 0.00 | 0.00 | 69 | 1011.9 |
| 20260505221518 | 79 | 171 | 4.3 | 8.7 | 0.00 | 0.00 | 0.00 | 68 | 1011.9 |
| 20260505220018 | 79 | 195 | 4.3 | 9.6 | 0.00 | 0.00 | 0.00 | 68 | 1011.7 |
| 20260505214509 | 80 | 153 | 2.6 | 9.6 | 0.00 | 0.00 | 0.00 | 68 | 1011.9 |
| 20260505213015 | 81 | 215 | 5.2 | 7.8 | 0.00 | 0.00 | 0.00 | 65 | 1011.8 |
| 20260505211518 | 81 | 136 | 4.3 | 11.3 | 0.00 | 0.00 | 0.00 | 64 | 1011.8 |
| 20260505210022 | 81 | 171 | 3.5 | 8.7 | 0.00 | 0.00 | 0.00 | 63 | 1011.9 |
| 20260505204525 | 82 | 86 | 3.5 | 10.4 | 0.00 | 0.00 | 0.00 | 62 | 1011.9 |
| 20260505203012 | 83 | 145 | 5.2 | 12.2 | 0.00 | 0.00 | 0.00 | 59 | 1011.9 |
| 20260505201522 | 82 | 185 | 1.7 | 7.8 | 0.00 | 0.00 | 0.00 | 62 | 1012.0 |
| 20260505200024 | 82 | 198 | 3.5 | 9.6 | 0.00 | 0.00 | 0.00 | 59 | 1012.3 |
| 20260505194505 | 82 | 174 | 2.6 | 11.3 | 0.00 | 0.00 | 0.00 | 59 | 1012.3 |
| 20260505193010 | 82 | 201 | 3.5 | 8.7 | 0.00 | 0.00 | 0.00 | 60 | 1012.6 |
| 20260505191512 | 83 | 146 | 3.5 | 8.7 | 0.00 | 0.00 | 0.00 | 57 | 1012.5 |
| 20260505190020 | 83 | 172 | 5.2 | 10.4 | 0.00 | 0.00 | 0.00 | 57 | 1012.8 |
| 20260505184526 | 82 | 129 | 5.2 | 9.6 | 0.00 | 0.00 | 0.00 | 58 | 1013.0 |
| 20260505183015 | 83 | 224 | 5.2 | 11.3 | 0.00 | 0.00 | 0.00 | 56 | 1013.1 |
| 20260505181512 | 83 | 217 | 5.2 | 8.7 | 0.00 | 0.00 | 0.00 | 56 | 1013.4 |
| 20260505180016 | 81 | 124 | 2.6 | 6.1 | 0.00 | 0.00 | 0.00 | 58 | 1013.3 |
| 20260505174520 | 81 | 176 | 5.2 | 9.6 | 0.00 | 0.00 | 0.00 | 58 | 1013.5 |
| 20260505173023 | 82 | 158 | 2.6 | 11.3 | 0.00 | 0.00 | 0.00 | 59 | 1013.6 |
| 20260505171508 | 80 | 272 | 5.2 | 11.3 | 0.00 | 0.00 | 0.00 | 58 | 1013.6 |
| 20260505170011 | 80 | 233 | 7.8 | 11.3 | 0.00 | 0.00 | 0.00 | 58 | 1013.9 |
| 20260505164520 | 80 | 214 | 4.3 | 11.3 | 0.00 | 0.00 | 0.00 | 59 | 1013.9 |
| 20260505163022 | 79 | 216 | 5.2 | 11.3 | 0.00 | 0.00 | 0.00 | 61 | 1013.8 |
| 20260505161528 | 78 | 206 | 3.5 | 12.2 | 0.00 | 0.00 | 0.00 | 65 | 1013.8 |